Location: Nantong Television Tower
(32.0188°N, 120.8512°E)
Time: 00:31:27
(UTC+08:00)

Daily predictions for brighter satellites

Satellite Brightness Start Highest point End
(mag) Time Altitude Azimuth Time Altitude Azimuth Time Altitude Azimuth
CZ-2D R/B 3.7 01:51:16 10° NNE 01:53:57 31° NNE 01:53:57 31° NNE
ADEOS II 4.3 02:00:49 10° NE 02:04:11 17° E 02:04:42 17° E
ATLAS 3B R/B 2.8 02:15:55 76° ENE 02:15:55 76° ENE 02:22:25 10° NNE
Cosmos 1980 Rocket 4.0 02:15:21 10° NNW 02:17:19 23° NNW 02:17:19 23° NNW
SL-16 R/B 3.3 02:24:33 43° NNW 02:24:33 43° NNW 02:28:39 10° NNW
Resurs 1-4 Rocket 3.5 02:18:48 10° N 02:21:33 30° NNW 02:21:33 30° NNW
NOSS 3-2 (A) 3.7 02:27:02 60° E 02:27:02 60° E 02:32:31 10° NE
Cosmos 1937 Rocket 4.5 02:23:42 10° N 02:27:21 42° NNE 02:27:21 42° NNE
Meteor 1-21 4.5 02:33:35 65° NE 02:33:35 65° NE 02:38:27 10° NNE
CENTAUR R/B 4.3 02:32:14 15° SE 02:34:16 18° ESE 02:38:16 10° ENE
SL-16 R/B 3.3 02:32:04 10° N 02:37:25 41° ENE 02:42:44 10° SE
Delta 2 Rocket 4.3 02:45:12 69° E 02:45:12 69° E 02:50:14 10° ENE
USA 215 3.8 02:40:53 10° NE 02:47:08 47° SE 02:48:29 42° SSE
ARIANE 5 R/B 3.4 02:42:14 10° N 02:45:51 40° NNW 02:45:51 40° NNW
Cosmos 2322 Rocket 2.9 02:45:42 10° N 02:51:11 52° ENE 02:56:38 10° SE
Cosmos 1833 4.4 02:58:46 54° SSE 02:59:51 66° ESE 03:05:36 10° NNE
Cosmos 1953 3.8 02:58:30 10° NNE 03:02:15 35° E 03:03:40 27° ESE
Cosmos 44 3.5 02:57:07 10° NNW 03:02:27 83° ENE 03:07:51 10° SSE
H-II Stage 2 3.1 03:07:52 46° SSE 03:08:13 47° SSE 03:20:52 10° E
Cosmos 2150 Rocket 3.9 03:03:20 10° NNW 03:08:48 80° WSW 03:09:36 65° S
Cosmos 841 Rocket 4.3 03:11:58 35° NW 03:11:58 35° NW 03:16:02 10° N
Cosmos 1602 Rocket 3.5 03:11:50 75° N 03:11:50 75° N 03:15:48 10° N
Cosmos 1733 3.8 03:08:22 10° N 03:12:10 53° E 03:12:30 51° ESE
Cosmos 2298 Rocket 4.2 03:11:43 10° NNW 03:16:16 53° WNW 03:16:16 53° WNW
Cosmos 540 Rocket 3.4 03:17:31 59° W 03:17:40 60° WNW 03:22:46 10° N
ERBS 3.7 03:23:25 33° N 03:23:25 33° N 03:25:41 10° NNE
Cosmos 1626 Rocket 3.8 03:23:26 50° NW 03:23:26 50° NW 03:27:06 10° N
SJ 16-02 1.9 03:25:35 10° N 03:29:57 59° ENE 03:34:18 10° SSE
Cosmos 1758 3.4 03:26:32 10° NNW 03:30:03 59° WNW 03:30:03 59° WNW
CZ-2D R/B 4.3 03:34:59 10° NW 03:35:17 10° NW 03:35:17 10° NW
Cosmos 1378 3.5 03:38:51 46° WNW 03:38:51 46° WNW 03:42:06 10° N
Cosmos 2266 Rocket 4.1 03:35:42 10° NNW 03:41:33 49° W 03:44:53 25° SSW
Cosmos 44 Rocket 3.3 03:36:57 10° NW 03:42:04 63° WSW 03:47:10 10° SSE
ADEOS II 2.5 03:39:04 10° N 03:44:02 44° WNW 03:45:39 34° WSW
Cosmos 1470 2.8 03:47:29 10° NNW 03:51:23 58° W 03:53:15 28° SSW
MOS 1-B 4.4 03:47:41 10° NNE 03:53:32 86° ESE 03:59:20 10° SSW
S3M 4.4 03:49:37 10° S 03:55:39 64° E 04:01:41 10° NNE
Cosmos 1707 3.2 03:56:36 35° WSW 03:57:18 39° W 04:00:58 10° N
NOSS 3-2 (C) 4.3 03:59:18 23° W 04:02:05 33° NW 04:07:47 10° NNE
Cosmos 2360 Rocket 2.1 03:56:50 10° NNW 04:02:29 89° WSW 04:08:07 10° SSE
SEDSat Delta rocket 4.0 03:58:13 21° W 04:02:32 60° SSW 04:09:12 10° ESE
ATLAS 3B R/B 4.3 04:03:10 13° W 04:06:45 19° NW 04:11:30 10° N
Cosmos 2219 3.5 04:03:55 10° S 04:09:34 71° ESE 04:15:17 10° NNE
Meteor 2-5 Rocket 3.6 04:07:10 10° SSW 04:12:39 71° W 04:18:14 10° N
Cosmos 1825 Rocket 3.7 04:09:57 16° SSW 04:13:10 49° W 04:17:22 10° N
CZ-4B R/B 3.0 04:10:27 10° N 04:14:26 54° WNW 04:17:36 14° SSW
Cosmos 1125 Rocket 3.6 04:12:08 10° NNW 04:17:17 52° WSW 04:22:22 10° S
Meteosat 1 Rocket2 4.5 04:14:55 17° W 04:19:41 57° S 04:28:48 10° ESE
Meteor PRIRODA 3.8 04:17:24 10° NNE 04:21:06 76° ESE 04:24:49 10° S
SL-16 R/B 3.3 04:17:02 10° NW 04:21:09 21° W 04:25:14 10° SSW
Meteor 1-28 Rocket 3.9 04:18:27 10° SSE 04:22:07 58° ENE 04:25:49 10° N
CENTAUR R/B 2.7 04:19:26 15° SW 04:24:06 54° NW 04:30:33 10° NNE
Cosmos 2227 Rocket 3.8 04:19:17 10° SSE 04:24:18 34° ESE 04:29:21 10° NE
Cosmos 2333 Rocket 4.3 04:19:47 10° N 04:24:47 31° ENE 04:29:46 10° SE
Meteor 1-31 Rocket 2.7 04:22:14 10° NNE 04:26:06 89° ESE 04:29:55 10° SSW
Cosmos 1238 Rocket 4.5 04:20:08 10° SSW 04:26:15 44° W 04:32:36 10° N
Cosmos 2297 Rocket 4.0 04:21:49 10° SSE 04:26:43 31° ESE 04:31:39 10° NE
Okean O Rocket 1.5 04:22:46 10° N 04:27:07 78° WNW 04:31:26 10° SSW
Delta 2 Rocket 4.5 04:22:09 12° W 04:27:32 61° N 04:33:00 10° ENE
Cosmos 2219 Rocket 3.8 04:22:46 10° N 04:27:58 38° ENE 04:33:07 10° SE
Cosmos 2292 Rocket 2.5 04:26:12 10° N 04:29:22 79° W 04:32:17 10° S
USA 215 3.9 04:23:58 10° NNE 04:29:59 41° NW 04:35:51 11° WSW
COSMOS 2428 3.3 04:24:26 10° NNW 04:30:04 61° ENE 04:35:39 10° SSE
SJ-6F 4.4 04:26:22 10° NNE 04:30:32 90° ENE 04:34:39 10° SSW
Cosmos 1315 Rocket 3.6 04:26:38 10° S 04:30:34 55° E 04:34:29 10° NNE
Meteor 1-24 Rocket 3.5 04:26:03 10° SSW 04:31:20 76° W 04:36:40 10° N
Cosmos 2322 Rocket 3.6 04:31:24 10° WNW 04:34:41 16° W 04:37:58 10° SW
IDEFIX/ARIANE 42P 3.5 04:30:39 10° NNE 04:35:45 52° E 04:40:51 10° S
Cosmos 1400 Rocket 3.0 04:32:18 10° SSW 04:36:04 47° W 04:39:54 10° N
Cosmos 1953 4.3 04:36:51 10° WNW 04:38:14 12° W 04:39:18 11° WSW
Atlas Centaur 2 4.2 04:32:40 10° SSW 04:40:05 34° SSE 04:47:18 10° E
Cosmos 1953 Rocket 4.3 04:36:49 10° SW 04:40:53 35° W 04:44:59 10° NNW
IRS-1C Rocket 4.2 04:37:01 10° NNE 04:42:18 83° ESE 04:47:34 10° SSW
Meteor 1-16 Rocket 4.4 04:37:06 10° NNW 04:42:23 45° W 04:47:29 10° SSW
ATLAS CENTAUR R/B 1.9 04:42:00 10° NW 04:46:23 45° WSW 04:50:56 10° S
In-Cosmos 22 4.5 04:43:12 10° SSW 04:48:27 46° W 04:53:36 10° N
Aureole 2 Rocket 4.4 04:50:10 10° WNW 04:51:29 12° W 04:52:48 10° WSW
